• In Czech Republic
  • List of Countries
  • For 7 days
  • Water Temperature
  • Satellite Maps
  • Weather Map
  • Weather Widgets
  • user-avatar
    Login

    Hourly Weather Innsbruck

    Today, 18 June, Monday

    Time Temperature Precipitation Wind Pressure Humidity
    00:00 +7°C° 0.4 mm 1 mps 599 mmHg 96%
    01:00 +7°C° 0.4 mm 1 mps 599 mmHg 96%
    02:00 +7°C° 0.4 mm 1 mps 599 mmHg 96%
    03:00 +7°C° 0.4 mm 1 mps 599 mmHg 96%
    04:00 +7°C° 0.4 mm 1 mps 599 mmHg 96%
    05:00 +7°C° 0.2 mm 1 mps 600 mmHg 94%
    06:00 +8°C° 0.2 mm 1 mps 600 mmHg 93%
    07:00 +8°C° 0.2 mm 1 mps 600 mmHg 91%
    08:00 +9°C° 0.1 mm 1 mps 601 mmHg 86%
    09:00 +9°C° 0.1 mm 2 mps 601 mmHg 81%
    10:00 +10°C° 0.1 mm 2 mps 601 mmHg 76%
    11:00 +12°C° 0.2 mm 2 mps 602 mmHg 71%
    12:00 +13°C° 0.2 mm 2 mps 602 mmHg 66%
    13:00 +14°C° 0.2 mm 2 mps 603 mmHg 60%
    14:00 +14°C° 0.3 mm 2 mps 602 mmHg 62%
    15:00 +13°C° 0.3 mm 3 mps 602 mmHg 64%
    16:00 +13°C° 0.3 mm 3 mps 602 mmHg 66%
    17:00 +13°C° 0.2 mm 2 mps 602 mmHg 72%
    18:00 +12°C° 0.2 mm 2 mps 602 mmHg 79%
    19:00 +10°C° 0.2 mm 2 mps 601 mmHg 85%
    20:00 +9°C° 0 mm 2 mps 601 mmHg 88%
    21:00 +8°C° 0 mm 2 mps 601 mmHg 91%
    22:00 +8°C° 0 mm 1 mps 601 mmHg 95%
    23:00 +7°C° 0 mm 1 mps 601 mmHg 95%

    Tomorrow, 19 June, Tuesday

    Time Temperature Precipitation Wind Pressure Humidity
    00:00 +6°C° 0 mm 1 mps 601 mmHg 95%
    01:00 +6°C° 0 mm 1 mps 600 mmHg 95%
    02:00 +6°C° 0 mm 1 mps 600 mmHg 95%
    03:00 +5°C° 0 mm 1 mps 600 mmHg 95%
    04:00 +5°C° 0 mm 1 mps 600 mmHg 95%
    05:00 +6°C° 0 mm 1 mps 601 mmHg 90%
    06:00 +8°C° 0 mm 1 mps 602 mmHg 84%
    07:00 +10°C° 0 mm 1 mps 602 mmHg 79%
    08:00 +12°C° 0 mm 2 mps 603 mmHg 71%
    09:00 +14°C° 0 mm 2 mps 604 mmHg 62%
    10:00 +15°C° 0 mm 2 mps 605 mmHg 54%
    11:00 +16°C° 0 mm 2 mps 605 mmHg 53%
    12:00 +17°C° 0 mm 2 mps 605 mmHg 52%
    13:00 +17°C° 0 mm 3 mps 605 mmHg 51%
    14:00 +17°C° 0 mm 3 mps 605 mmHg 53%
    15:00 +17°C° 0 mm 3 mps 604 mmHg 55%
    16:00 +17°C° 0 mm 3 mps 604 mmHg 57%
    17:00 +16°C° 0 mm 2 mps 604 mmHg 65%
    18:00 +15°C° 0 mm 2 mps 603 mmHg 72%
    19:00 +14°C° 0 mm 2 mps 603 mmHg 79%
    20:00 +12°C° 0 mm 2 mps 603 mmHg 84%
    21:00 +10°C° 0 mm 1 mps 602 mmHg 90%
    22:00 +9°C° 0 mm 1 mps 602 mmHg 96%
    23:00 +8°C° 0 mm 1 mps 602 mmHg 96%

    Day after tomorrow, 20 June, Wednesday

    Time Temperature Precipitation Wind Pressure Humidity
    00:00 +8°C° 0 mm 1 mps 601 mmHg 96%
    01:00 +7°C° 0 mm 1 mps 601 mmHg 96%
    02:00 +7°C° 0 mm 1 mps 601 mmHg 95%
    03:00 +6°C° 0 mm 1 mps 600 mmHg 95%
    04:00 +6°C° 0 mm 1 mps 600 mmHg 94%
    05:00 +8°C° 0 mm 1 mps 601 mmHg 88%
    06:00 +9°C° 0 mm 0 mps 602 mmHg 81%
    07:00 +11°C° 0 mm 0 mps 603 mmHg 75%
    08:00 +13°C° 0 mm 0 mps 604 mmHg 67%
    09:00 +16°C° 0 mm 1 mps 604 mmHg 59%
    10:00 +19°C° 0 mm 1 mps 605 mmHg 51%
    11:00 +20°C° 0 mm 1 mps 605 mmHg 50%
    12:00 +20°C° 0 mm 1 mps 605 mmHg 48%
    13:00 +21°C° 0 mm 1 mps 605 mmHg 47%
    14:00 +20°C° 0.3 mm 1 mps 605 mmHg 51%
    15:00 +20°C° 0.3 mm 1 mps 604 mmHg 56%
    16:00 +19°C° 0.3 mm 1 mps 604 mmHg 61%
    17:00 +18°C° 0.8 mm 1 mps 603 mmHg 67%
    18:00 +16°C° 0.8 mm 1 mps 603 mmHg 74%
    19:00 +15°C° 0.8 mm 1 mps 602 mmHg 81%
    20:00 +14°C° 0.7 mm 1 mps 602 mmHg 85%
    21:00 +12°C° 0.7 mm 1 mps 602 mmHg 88%
    22:00 +11°C° 0.7 mm 1 mps 601 mmHg 92%
    23:00 +11°C° 0.2 mm 1 mps 601 mmHg 93%

    21 June, Thursday

    Time Temperature Precipitation Wind Pressure Humidity
    00:00 +9°C° 0.2 mm 2 mps 601 mmHg 93%
    01:00 +9°C° 0.2 mm 2 mps 600 mmHg 94%
    02:00 +9°C° 0.1 mm 2 mps 600 mmHg 94%
    03:00 +8°C° 0.1 mm 2 mps 600 mmHg 94%
    04:00 +8°C° 0.1 mm 2 mps 599 mmHg 94%
    05:00 +10°C° 0.1 mm 1 mps 600 mmHg 89%
    06:00 +12°C° 0.1 mm 1 mps 600 mmHg 84%
    07:00 +14°C° 0.1 mm 1 mps 601 mmHg 80%
    08:00 +15°C° 0.5 mm 1 mps 601 mmHg 73%
    09:00 +18°C° 0.5 mm 1 mps 602 mmHg 67%
    10:00 +19°C° 0.5 mm 1 mps 602 mmHg 61%
    11:00 +20°C° 1.3 mm 1 mps 602 mmHg 60%
    12:00 +20°C° 1.3 mm 1 mps 602 mmHg 60%
    13:00 +20°C° 1.3 mm 1 mps 602 mmHg 59%
    14:00 +20°C° 1.6 mm 1 mps 601 mmHg 63%
    15:00 +19°C° 1.6 mm 1 mps 601 mmHg 66%
    16:00 +18°C° 1.6 mm 2 mps 600 mmHg 70%
    17:00 +16°C° 1.6 mm 2 mps 600 mmHg 76%
    18:00 +15°C° 1.6 mm 2 mps 600 mmHg 82%
    19:00 +14°C° 1.6 mm 1 mps 599 mmHg 88%
    20:00 +13°C° 0.7 mm 1 mps 599 mmHg 90%
    21:00 +12°C° 0.7 mm 1 mps 599 mmHg 93%
    22:00 +10°C° 0.7 mm 1 mps 598 mmHg 95%
    23:00 +10°C° 0.4 mm 1 mps 598 mmHg 95%

    22 June, Friday

    Time Temperature Precipitation Wind Pressure Humidity
    00:00 +10°C° 0.4 mm 1 mps 598 mmHg 96%
    01:00 +10°C° 0.4 mm 1 mps 598 mmHg 97%
    02:00 +8°C° 0.2 mm 2 mps 598 mmHg 97%
    03:00 +8°C° 0.2 mm 2 mps 598 mmHg 97%
    04:00 +7°C° 0.2 mm 2 mps 598 mmHg 97%
    05:00 +7°C° 0.2 mm 2 mps 598 mmHg 96%
    06:00 +7°C° 0.2 mm 2 mps 598 mmHg 95%
    07:00 +6°C° 0.2 mm 2 mps 598 mmHg 95%
    08:00 +6°C° 0.1 mm 2 mps 598 mmHg 93%
    09:00 +6°C° 0.1 mm 2 mps 598 mmHg 91%
    10:00 +6°C° 0.1 mm 2 mps 598 mmHg 90%
    11:00 +7°C° 0 mm 2 mps 598 mmHg 84%
    12:00 +8°C° 0 mm 2 mps 598 mmHg 78%
    13:00 +9°C° 0 mm 3 mps 598 mmHg 72%
    14:00 +9°C° 0 mm 3 mps 598 mmHg 69%
    15:00 +9°C° 0 mm 3 mps 598 mmHg 67%
    16:00 +9°C° 0 mm 3 mps 598 mmHg 65%
    17:00 +8°C° 0 mm 3 mps 598 mmHg 67%
    18:00 +7°C° 0 mm 3 mps 598 mmHg 69%
    19:00 +7°C° 0 mm 3 mps 598 mmHg 72%
    20:00 +5°C° 0 mm 2 mps 598 mmHg 78%
    21:00 +4°C° 0 mm 2 mps 598 mmHg 84%
    22:00 +3°C° 0 mm 2 mps 598 mmHg 90%
    23:00 +2°C° 0 mm 2 mps 598 mmHg 91%

    23 June, Saturday

    Time Temperature Precipitation Wind Pressure Humidity
    00:00 +3°C° 0 mm 1 mps 598 mmHg 92%
    01:00 +2°C° 0 mm 1 mps 598 mmHg 93%
    02:00 +2°C° 0 mm 1 mps 598 mmHg 93%
    03:00 +1°C° 0 mm 1 mps 597 mmHg 93%
    04:00 +1°C° 0 mm 1 mps 597 mmHg 93%
    05:00 +2°C° 0 mm 1 mps 598 mmHg 86%
    06:00 +4°C° 0 mm 1 mps 598 mmHg 78%
    07:00 +5°C° 0 mm 1 mps 599 mmHg 71%
    08:00 +6°C° 0 mm 2 mps 599 mmHg 62%
    09:00 +8°C° 0 mm 2 mps 600 mmHg 53%
    10:00 +10°C° 0 mm 2 mps 601 mmHg 45%
    11:00 +12°C° 0 mm 2 mps 601 mmHg 43%
    12:00 +12°C° 0 mm 2 mps 601 mmHg 42%
    13:00 +12°C° 0 mm 3 mps 601 mmHg 41%
    14:00 +12°C° 0 mm 3 mps 601 mmHg 44%
    15:00 +12°C° 0 mm 3 mps 600 mmHg 47%
    16:00 +11°C° 0 mm 3 mps 600 mmHg 50%
    17:00 +10°C° 0 mm 3 mps 600 mmHg 57%
    18:00 +9°C° 0 mm 3 mps 599 mmHg 65%
    19:00 +8°C° 0 mm 2 mps 599 mmHg 72%
    20:00 +6°C° 0 mm 2 mps 599 mmHg 80%
    21:00 +6°C° 0 mm 1 mps 598 mmHg 87%
    22:00 +4°C° 0 mm 1 mps 598 mmHg 94%
    23:00 +3°C° 0 mm 1 mps 598 mmHg 95%
    Show more